This is the latest recevied weather packets stored in our database for station/object N4CRH-13. If no packets are shown the sender has not sent any weather packets the latest 1 day(s).
| Time | Temp. | Humidity | Pressure | Rain* | Wind** | Luminosity | Snow |
|---|---|---|---|---|---|---|---|
| 1778020962 | 0.56° C | 99% | 1288.6 hPa | 1.27 mm | 3.13 m/s, 248° | 43 W/m² | - |
| 1778020659 | 0.56° C | 99% | 1288.5 hPa | 0 mm | 2.68 m/s, 266° | 51 W/m² | - |
| 1778020355 | 0.56° C | 99% | 1288.6 hPa | 0 mm | 2.68 m/s, 251° | 53 W/m² | - |
| 1778020051 | 0.56° C | 99% | 1288.6 hPa | 0 mm | 2.24 m/s, 296° | 63 W/m² | - |
| 1778019747 | 0.56° C | 99% | 1288.5 hPa | 0 mm | 2.24 m/s, 299° | 69 W/m² | - |
| 1778019445 | 0.56° C | 99% | 1288.6 hPa | 0 mm | 2.24 m/s, 285° | 62 W/m² | - |
| 1778019141 | 0.56° C | 99% | 1288.5 hPa | 0 mm | 2.68 m/s, 258° | 58 W/m² | - |
| 1778018838 | 0.56° C | 99% | 1288.6 hPa | 0 mm | 2.68 m/s, 273° | 61 W/m² | - |
| 1778018536 | 0.56° C | 99% | 1288.5 hPa | 0 mm | 2.24 m/s, 303° | 88 W/m² | - |
| 1778018233 | 1.11° C | 99% | 1288.6 hPa | 1.78 mm | 2.68 m/s, 295° | 86 W/m² | - |
| 1778017931 | 1.11° C | 99% | 1288.6 hPa | 1.78 mm | 2.68 m/s, 296° | 83 W/m² | - |
| 1778017629 | 1.11° C | 99% | 1288.5 hPa | 0 mm | 3.13 m/s, 295° | 75 W/m² | - |
| 1778017327 | 1.11° C | 99% | 1288.6 hPa | 0 mm | 3.13 m/s, 295° | 121 W/m² | - |
| 1778017024 | 1.11° C | 99% | 1288.6 hPa | 0 mm | 2.24 m/s, 300° | 120 W/m² | - |
| 1778016721 | 1.11° C | 99% | 1289 hPa | 0 mm | 3.13 m/s, 295° | 107 W/m² | - |
| 1778016416 | 1.11° C | 99% | 1289 hPa | 0 mm | 3.13 m/s, 297° | 108 W/m² | - |
| 1778016114 | 1.67° C | 99% | 1289 hPa | 1.27 mm | 3.58 m/s, 288° | 97 W/m² | - |
| 1778015810 | 1.67° C | 99% | 1289.1 hPa | 1.27 mm | 2.68 m/s, 257° | 109 W/m² | - |
| 1778015508 | 1.67° C | 99% | 1289.1 hPa | 0 mm | 2.68 m/s, 293° | 146 W/m² | - |
| 1778015205 | 1.67° C | 99% | 1289.1 hPa | 0 mm | 2.68 m/s, 304° | 146 W/m² | - |
| 1778014901 | 1.67° C | 99% | 1289.1 hPa | 0 mm | 2.68 m/s, 285° | 156 W/m² | - |
| 1778014598 | 1.11° C | 99% | 1289.1 hPa | 0 mm | 3.13 m/s, 294° | 155 W/m² | - |
| 1778014296 | 1.67° C | 99% | 1289.2 hPa | 0 mm | 3.13 m/s, 291° | 112 W/m² | - |
| 1778014003 | 1.67° C | 99% | 1289.2 hPa | 0 mm | 3.13 m/s, 290° | 116 W/m² | - |
| 1778013692 | 2.22° C | 99% | 1289.5 hPa | 0 mm | 3.13 m/s, 276° | 198 W/m² | - |
* Rain latest hour (hover to see other rain measurements)
** Current wind speed in m/s (hover to see current wind gust speed)